Marysville, CA

12:37 PM PDT on March 30, 2017 (GMT -0700)
Yuba County

Weather History for KMYV - March, 2013

Change the Weather History Date:

Tuesday, March 5, 2013

  Actual Average Record
Temperature  
Mean Temperature 54 °F -  
Max Temperature 62 °F 64 °F 76 °F (1972)
Min Temperature 45 °F 42 °F 31 °F (1976)
Degree Days  
Heating Degree Days 12    
Growing Degree Days 4 (Base 50)    
Moisture  
Dew Point 41 °F    
Average Humidity 65    
Maximum Humidity 86    
Minimum Humidity 44    
Precipitation  
Precipitation 0.15 in - - ()
Sea Level Pressure  
Sea Level Pressure 29.95 in    
Wind  
Wind Speed 13 mph (SSE)    
Max Wind Speed 20 mph    
Max Gust Speed 26 mph    
Visibility 10 miles    
Events Rain    
Averages and records for this station are not official NWS values.
T = Trace of Precipitation, MM = Missing Value Source: NWS Daily Summary

Daily Weather History Graph

Daily Weather History Graph

Search for Another Location

Airport or City:

Trip Planner

Search our weather history database for the weather conditions in past years. The results will help you decide how hot, cold, wet, or windy it might be!

Date:

Astronomy

Mar. 05, 2013 Rise Set
Actual Time 6:32 AM PST 6:03 PM PST
Civil Twilight 6:05 AM PST 6:30 PM PST
Nautical Twilight 5:34 AM PST 7:01 PM PST
Astronomical Twilight 5:03 AM PST 7:32 PM PST
Moon 1:47 AM PST (3/5) 11:50 AM PST (3/5)
Length of Visible Light 12h 24m
Length of Day
11h 31m
Last Quarter, 39% of the Moon is Illuminated
Mar 5
Last Quarter
Mar 11
New
Mar 19
First Quarter
Mar 27
Full
Apr 2
Last Quarter

Hourly Weather History & Observations

Time (PST) Temp. Windchill Dew Point Humidity Pressure Visibility Wind Dir Wind Speed Gust Speed Precip Events Conditions
12:53 AM 48.9 °F - 42.1 °F 77% 30.02 in 10.0 mi SE 9.2 mph - N/A   Clear
1:53 AM 50.0 °F - 42.1 °F 74% 30.02 in 10.0 mi SE 10.4 mph - N/A   Overcast
2:53 AM 48.9 °F - 41.0 °F 74% 30.02 in 10.0 mi SSE 9.2 mph - N/A   Overcast
3:53 AM 48.0 °F - 39.0 °F 71% 30.01 in 10.0 mi SE 11.5 mph - N/A   Overcast
5:53 AM 46.9 °F - 39.9 °F 77% 30.01 in 10.0 mi SSE 15.0 mph - N/A   Scattered Clouds
6:53 AM 45.0 °F 39.7 °F 39.0 °F 80% 30.03 in 10.0 mi SSE 10.4 mph - N/A   Partly Cloudy
7:53 AM 46.9 °F - 39.0 °F 74% 30.03 in 10.0 mi SE 17.3 mph - N/A   Clear
8:53 AM 50.0 °F - 39.9 °F 68% 30.03 in 10.0 mi SE 15.0 mph - N/A   Clear
9:53 AM 53.1 °F - 39.0 °F 59% 30.01 in 10.0 mi South 19.6 mph - N/A   Clear
10:53 AM 55.0 °F - 42.1 °F 62% 30.00 in 10.0 mi South 18.4 mph - N/A   Mostly Cloudy
11:53 AM 59.0 °F - 42.1 °F 53% 29.99 in 10.0 mi SSE 16.1 mph 23.0 mph N/A   Partly Cloudy
12:53 PM 61.0 °F - 41.0 °F 48% 29.96 in 10.0 mi South 19.6 mph 25.3 mph N/A   Clear
1:53 PM 61.0 °F - 39.9 °F 46% 29.94 in 10.0 mi South 19.6 mph 25.3 mph N/A   Clear
2:53 PM 62.1 °F - 39.9 °F 44% 29.92 in 10.0 mi South 19.6 mph - N/A   Clear
3:53 PM 60.1 °F - 37.9 °F 44% 29.92 in 10.0 mi SSW 19.6 mph - N/A   Clear
4:53 PM 57.0 °F - 37.9 °F 49% 29.90 in 10.0 mi South 15.0 mph - N/A   Clear
5:53 PM 54.0 °F - 39.9 °F 59% 29.88 in 10.0 mi South 8.1 mph - N/A   Clear
6:53 PM 52.0 °F - 42.1 °F 69% 29.87 in 10.0 mi South 9.2 mph - N/A   Clear
7:53 PM 52.0 °F - 42.1 °F 69% 29.87 in 10.0 mi SSE 8.1 mph - N/A   Clear
8:53 PM 52.0 °F - 43.0 °F 71% 29.87 in 10.0 mi SSE 9.2 mph - N/A   Clear
9:53 PM 52.0 °F - 42.1 °F 69% 29.86 in 10.0 mi SSE 12.7 mph - N/A   Overcast
10:53 PM 50.0 °F - 44.1 °F 80% 29.85 in 4.0 mi SSE 15.0 mph - 0.06 in Rain Light Rain
11:53 PM 48.0 °F - 44.1 °F 86% 29.84 in 10.0 mi SSE 19.6 mph 26.5 mph 0.09 in Rain Light Rain